This is the latest recevied weather packets stored in our database for station/object K7NDG. If no packets are shown the sender has not sent any weather packets the latest 10 day(s).
| Time | Temp. | Humidity | Pressure | Rain* | Wind** | Luminosity | Snow |
|---|---|---|---|---|---|---|---|
| 1777937039 | 20.56° C | 62% | 1012.5 hPa | 0 mm | - | 548 W/m² | - |
| 1777936736 | 20.56° C | 62% | 1012.6 hPa | 0 mm | - | 591 W/m² | - |
| 1777936432 | 21.11° C | 60% | 1012.7 hPa | 0 mm | - | 593 W/m² | - |
| 1777936129 | 21.11° C | 60% | 1012.7 hPa | 0 mm | - | 592 W/m² | - |
| 1777935826 | 21.11° C | 62% | 1012.5 hPa | 0 mm | - | 615 W/m² | - |
| 1777935525 | 21.11° C | 61% | 1012.5 hPa | 0 mm | - | 643 W/m² | - |
| 1777935221 | 21.11° C | 60% | 1012.4 hPa | 0 mm | - | 653 W/m² | - |
| 1777934919 | 21.67° C | 59% | 1012.7 hPa | 0 mm | - | 667 W/m² | - |
| 1777934615 | 21.67° C | 61% | 1012.8 hPa | 0 mm | - | 664 W/m² | - |
| 1777934312 | 21.67° C | 60% | 1012.8 hPa | 0 mm | - | 659 W/m² | - |
| 1777934007 | 21.67° C | 58% | 1012.7 hPa | 0 mm | - | 667 W/m² | - |
| 1777933704 | 21.67° C | 59% | 1012.6 hPa | 0 mm | - | 670 W/m² | - |
| 1777933401 | 21.67° C | 59% | 1012.7 hPa | 0 mm | - | 674 W/m² | - |
| 1777933100 | 22.22° C | 58% | 1012.5 hPa | 0 mm | - | 680 W/m² | - |
| 1777932796 | 22.22° C | 59% | 1012.7 hPa | 0 mm | - | 688 W/m² | - |
| 1777932493 | 22.22° C | 59% | 1012.7 hPa | 0 mm | - | 685 W/m² | - |
| 1777932190 | 22.22° C | 59% | 1012.6 hPa | 0 mm | - | 681 W/m² | - |
| 1777931888 | 21.67° C | 60% | 1012.5 hPa | 0 mm | - | 683 W/m² | - |
| 1777931583 | 22.22° C | 59% | 1012.5 hPa | 0 mm | - | 676 W/m² | - |
| 1777931279 | 22.22° C | 60% | 1012.9 hPa | 0 mm | - | 675 W/m² | - |
| 1777930976 | 22.22° C | 60% | 1012.9 hPa | 0 mm | - | 643 W/m² | - |
| 1777930673 | 22.22° C | 60% | 1013 hPa | 0 mm | - | 632 W/m² | - |
| 1777930369 | 22.22° C | 58% | 1012.7 hPa | 0 mm | - | 590 W/m² | - |
| 1777930066 | 22.22° C | 59% | 1012.7 hPa | 0 mm | - | 648 W/m² | - |
| 1777929763 | 22.22° C | 60% | 1012.7 hPa | 0 mm | - | 643 W/m² | - |
* Rain latest hour (hover to see other rain measurements)
** Current wind speed in m/s (hover to see current wind gust speed)